owner,sensor,date,latitude,longitude,air_pressure(mBar),qcFlag 
TCOON,ioos:station:TCOON:003:1,2008-08-12T16:00:00Z,26.8015,-97.4706,1010.7,11111222 
TCOON,ioos:station:TCOON:003:1,2008-08-12T17:00:00Z,26.8015,-97.4706,1010.3,11111222 
TCOON,ioos:station:TCOON:003:1,2008-08-12T18:00:00Z,26.8015,-97.4706,1009.7,11111222 
TCOON,ioos:station:TCOON:003:1,2008-08-12T19:00:00Z,26.8015,-97.4706,1009.1,11111222 
TCOON,ioos:station:TCOON:003:1,2008-08-12T20:00:00Z,26.8015,-97.4706,1008.0,11111222 
TCOON,ioos:station:TCOON:003:1,2008-08-12T21:00:00Z,26.8015,-97.4706,1007.4,11111222 
TCOON,ioos:station:TCOON:003:1,2008-08-12T22:00:00Z,26.8015,-97.4706,1007.3,11111222 
TCOON,ioos:station:TCOON:003:1,2008-08-12T23:00:00Z,26.8015,-97.4706,1007.5,11111222 
TCOON,ioos:station:TCOON:003:1,2008-08-13T00:00:00Z,26.8015,-97.4706,1007.8,11111222 
TCOON,ioos:station:TCOON:003:1,2008-08-13T01:00:00Z,26.8015,-97.4706,1008.4,11111222 
TCOON,ioos:station:TCOON:003:1,2008-08-13T02:00:00Z,26.8015,-97.4706,1009.0,11111222 
TCOON,ioos:station:TCOON:003:1,2008-08-13T03:00:00Z,26.8015,-97.4706,1010.2,11111222 
TCOON,ioos:station:TCOON:003:1,2008-08-13T04:00:00Z,26.8015,-97.4706,1010.3,11111222 
TCOON,ioos:station:TCOON:003:1,2008-08-13T05:00:00Z,26.8015,-97.4706,1009.9,11111222 
TCOON,ioos:station:TCOON:003:1,2008-08-13T07:00:00Z,26.8015,-97.4706,1009.1,11111222 
TCOON,ioos:station:TCOON:003:1,2008-08-13T08:00:00Z,26.8015,-97.4706,1009.0,11111222 
TCOON,ioos:station:TCOON:003:1,2008-08-13T09:00:00Z,26.8015,-97.4706,1009.3,11111222 
TCOON,ioos:station:TCOON:003:1,2008-08-13T10:00:00Z,26.8015,-97.4706,1009.8,11111222 
TCOON,ioos:station:TCOON:003:1,2008-08-13T11:00:00Z,26.8015,-97.4706,1010.0,11111222 
TCOON,ioos:station:TCOON:003:1,2008-08-13T12:00:00Z,26.8015,-97.4706,1010.6,11111222 
TCOON,ioos:station:TCOON:003:1,2008-08-13T13:00:00Z,26.8015,-97.4706,1010.9,11111222 
TCOON,ioos:station:TCOON:003:1,2008-08-13T14:00:00Z,26.8015,-97.4706,1011.0,11111222 
TCOON,ioos:station:TCOON:003:1,2008-08-13T15:00:00Z,26.8015,-97.4706,1011.5,11111222 
TCOON,ioos:station:TCOON:003:1,2008-08-13T16:00:00Z,26.8015,-97.4706,1011.7,11111222 
TCOON,ioos:station:TCOON:003:1,2008-08-13T17:00:00Z,26.8015,-97.4706,1011.2,11111222 
TCOON,ioos:station:TCOON:003:1,2008-08-13T18:00:00Z,26.8015,-97.4706,1010.6,11111222 
TCOON,ioos:station:TCOON:003:1,2008-08-13T19:00:00Z,26.8015,-97.4706,1010.4,11111222 
TCOON,ioos:station:TCOON:003:1,2008-08-13T20:00:00Z,26.8015,-97.4706,1009.7,11111222 
TCOON,ioos:station:TCOON:003:1,2008-08-13T21:00:00Z,26.8015,-97.4706,1010.0,11111222 
TCOON,ioos:station:TCOON:003:1,2008-08-13T22:00:00Z,26.8015,-97.4706,1009.7,11111222 
TCOON,ioos:station:TCOON:003:1,2008-08-13T23:00:00Z,26.8015,-97.4706,1009.8,11111222 
TCOON,ioos:station:TCOON:003:1,2008-08-14T00:00:00Z,26.8015,-97.4706,1009.2,11111222 
TCOON,ioos:station:TCOON:003:1,2008-08-14T01:00:00Z,26.8015,-97.4706,1010.2,11111222 
TCOON,ioos:station:TCOON:003:1,2008-08-14T02:00:00Z,26.8015,-97.4706,1010.5,11111222 
TCOON,ioos:station:TCOON:003:1,2008-08-14T03:00:00Z,26.8015,-97.4706,1011.2,11111222 
TCOON,ioos:station:TCOON:003:1,2008-08-14T04:00:00Z,26.8015,-97.4706,1011.7,11111222 
TCOON,ioos:station:TCOON:003:1,2008-08-14T05:00:00Z,26.8015,-97.4706,1011.8,11111222 
TCOON,ioos:station:TCOON:003:1,2008-08-14T06:00:00Z,26.8015,-97.4706,1011.3,11111222 
TCOON,ioos:station:TCOON:003:1,2008-08-14T07:00:00Z,26.8015,-97.4706,1010.9,11111222 
TCOON,ioos:station:TCOON:003:1,2008-08-14T08:00:00Z,26.8015,-97.4706,1010.8,11111222 
TCOON,ioos:station:TCOON:003:1,2008-08-14T09:00:00Z,26.8015,-97.4706,1011.1,11111222 
TCOON,ioos:station:TCOON:003:1,2008-08-14T10:00:00Z,26.8015,-97.4706,1011.5,11111222 
TCOON,ioos:station:TCOON:003:1,2008-08-14T11:00:00Z,26.8015,-97.4706,1012.0,11111222 
TCOON,ioos:station:TCOON:003:1,2008-08-14T12:00:00Z,26.8015,-97.4706,1012.5,11111222 
TCOON,ioos:station:TCOON:003:1,2008-08-14T13:00:00Z,26.8015,-97.4706,1012.9,11111222 
TCOON,ioos:station:TCOON:003:1,2008-08-14T14:00:00Z,26.8015,-97.4706,1013.3,11111222 
TCOON,ioos:station:TCOON:003:1,2008-08-14T15:00:00Z,26.8015,-97.4706,1013.6,11111222 
TCOON,ioos:station:TCOON:003:1,2008-08-14T16:00:00Z,26.8015,-97.4706,1013.6,11111222 
TCOON,ioos:station:TCOON:003:1,2008-08-14T17:00:00Z,26.8015,-97.4706,1013.4,11111222 
TCOON,ioos:station:TCOON:003:1,2008-08-14T18:00:00Z,26.8015,-97.4706,1013.2,11111222 
TCOON,ioos:station:TCOON:003:1,2008-08-14T19:00:00Z,26.8015,-97.4706,1012.9,11111222 
TCOON,ioos:station:TCOON:003:1,2008-08-14T20:00:00Z,26.8015,-97.4706,1012.4,11111222 
TCOON,ioos:station:TCOON:003:1,2008-08-14T21:00:00Z,26.8015,-97.4706,1012.1,11111222 
TCOON,ioos:station:TCOON:003:1,2008-08-14T22:00:00Z,26.8015,-97.4706,1012.4,11111222 
TCOON,ioos:station:TCOON:003:1,2008-08-14T23:00:00Z,26.8015,-97.4706,1012.2,11111222 
TCOON,ioos:station:TCOON:003:1,2008-08-15T00:00:00Z,26.8015,-97.4706,1012.3,11111222 
TCOON,ioos:station:TCOON:003:1,2008-08-15T01:00:00Z,26.8015,-97.4706,1012.4,11111222 
TCOON,ioos:station:TCOON:003:1,2008-08-15T02:00:00Z,26.8015,-97.4706,1013.0,11111222 
TCOON,ioos:station:TCOON:003:1,2008-08-15T03:00:00Z,26.8015,-97.4706,1012.9,11111222 
TCOON,ioos:station:TCOON:003:1,2008-08-15T04:00:00Z,26.8015,-97.4706,1013.1,11111222 
TCOON,ioos:station:TCOON:003:1,2008-08-15T05:00:00Z,26.8015,-97.4706,1013.3,11111222 
TCOON,ioos:station:TCOON:003:1,2008-08-15T06:00:00Z,26.8015,-97.4706,1013.3,11111222 
TCOON,ioos:station:TCOON:003:1,2008-08-15T07:00:00Z,26.8015,-97.4706,1013.2,11111222 
TCOON,ioos:station:TCOON:003:1,2008-08-15T08:00:00Z,26.8015,-97.4706,1013.0,11111222 
TCOON,ioos:station:TCOON:003:1,2008-08-15T09:00:00Z,26.8015,-97.4706,1012.9,11111222 
TCOON,ioos:station:TCOON:003:1,2008-08-15T10:00:00Z,26.8015,-97.4706,1012.6,11111222 
TCOON,ioos:station:TCOON:003:1,2008-08-15T11:00:00Z,26.8015,-97.4706,1012.9,11111222 
TCOON,ioos:station:TCOON:003:1,2008-08-15T12:00:00Z,26.8015,-97.4706,1013.3,11111222 
TCOON,ioos:station:TCOON:003:1,2008-08-15T13:00:00Z,26.8015,-97.4706,1013.8,11111222 
TCOON,ioos:station:TCOON:003:1,2008-08-15T14:00:00Z,26.8015,-97.4706,1014.1,11111222 
TCOON,ioos:station:TCOON:003:1,2008-08-15T15:00:00Z,26.8015,-97.4706,1014.3,11111222 
TCOON,ioos:station:TCOON:003:1,2008-08-15T16:00:00Z,26.8015,-97.4706,1014.3,11111222 
TCOON,ioos:station:TCOON:003:1,2008-08-15T17:00:00Z,26.8015,-97.4706,1014.3,11111222 
TCOON,ioos:station:TCOON:003:1,2008-08-15T18:00:00Z,26.8015,-97.4706,1013.9,11111222 
TCOON,ioos:station:TCOON:003:1,2008-08-15T19:00:00Z,26.8015,-97.4706,1013.7,11111222 
TCOON,ioos:station:TCOON:003:1,2008-08-15T20:00:00Z,26.8015,-97.4706,1012.9,11111222 
TCOON,ioos:station:TCOON:003:1,2008-08-15T21:00:00Z,26.8015,-97.4706,1012.5,11111222 
TCOON,ioos:station:TCOON:003:1,2008-08-15T22:00:00Z,26.8015,-97.4706,1012.5,11111222 
TCOON,ioos:station:TCOON:003:1,2008-08-15T23:00:00Z,26.8015,-97.4706,1012.3,11111222 
TCOON,ioos:station:TCOON:003:1,2008-08-16T00:00:00Z,26.8015,-97.4706,1013.3,11111222 
TCOON,ioos:station:TCOON:003:1,2008-08-16T01:00:00Z,26.8015,-97.4706,1013.8,11111222 
TCOON,ioos:station:TCOON:003:1,2008-08-16T02:00:00Z,26.8015,-97.4706,1014.1,11111222 
TCOON,ioos:station:TCOON:003:1,2008-08-16T03:00:00Z,26.8015,-97.4706,1015.0,11111222 
TCOON,ioos:station:TCOON:003:1,2008-08-16T04:00:00Z,26.8015,-97.4706,1015.3,11111222 
TCOON,ioos:station:TCOON:003:1,2008-08-16T05:00:00Z,26.8015,-97.4706,1015.2,11111222 
TCOON,ioos:station:TCOON:003:1,2008-08-16T06:00:00Z,26.8015,-97.4706,1015.4,11111222 
TCOON,ioos:station:TCOON:003:1,2008-08-16T07:00:00Z,26.8015,-97.4706,1014.7,11111222 
TCOON,ioos:station:TCOON:003:1,2008-08-16T08:00:00Z,26.8015,-97.4706,1014.3,11111222 
TCOON,ioos:station:TCOON:003:1,2008-08-16T09:00:00Z,26.8015,-97.4706,1014.1,11111222 
TCOON,ioos:station:TCOON:003:1,2008-08-16T10:00:00Z,26.8015,-97.4706,1014.2,11111222 
TCOON,ioos:station:TCOON:003:1,2008-08-16T11:00:00Z,26.8015,-97.4706,1014.4,11111222 
TCOON,ioos:station:TCOON:003:1,2008-08-16T12:00:00Z,26.8015,-97.4706,1014.7,11111222 
TCOON,ioos:station:TCOON:003:1,2008-08-16T13:00:00Z,26.8015,-97.4706,1014.9,11111222 
TCOON,ioos:station:TCOON:003:1,2008-08-16T14:00:00Z,26.8015,-97.4706,1015.0,11111222 
TCOON,ioos:station:TCOON:003:1,2008-08-16T15:00:00Z,26.8015,-97.4706,1015.3,11111222 
TCOON,ioos:station:TCOON:003:1,2008-08-16T16:00:00Z,26.8015,-97.4706,1014.9,11111222 
TCOON,ioos:station:TCOON:003:1,2008-08-16T17:00:00Z,26.8015,-97.4706,1014.7,11111222 
TCOON,ioos:station:TCOON:003:1,2008-08-16T18:00:00Z,26.8015,-97.4706,1013.9,11111222 
TCOON,ioos:station:TCOON:003:1,2008-08-16T19:00:00Z,26.8015,-97.4706,1013.9,11111222 
TCOON,ioos:station:TCOON:003:1,2008-08-16T20:00:00Z,26.8015,-97.4706,1013.5,11111222 
TCOON,ioos:station:TCOON:003:1,2008-08-16T21:00:00Z,26.8015,-97.4706,1013.2,11111222 
TCOON,ioos:station:TCOON:003:1,2008-08-16T22:00:00Z,26.8015,-97.4706,1012.7,11111222 
TCOON,ioos:station:TCOON:003:1,2008-08-16T23:00:00Z,26.8015,-97.4706,1012.6,11111222 
TCOON,ioos:station:TCOON:003:1,2008-08-17T00:00:00Z,26.8015,-97.4706,1012.6,11111222 
TCOON,ioos:station:TCOON:003:1,2008-08-17T01:00:00Z,26.8015,-97.4706,1013.4,11111222 
TCOON,ioos:station:TCOON:003:1,2008-08-17T02:00:00Z,26.8015,-97.4706,1014.2,11111222 
TCOON,ioos:station:TCOON:003:1,2008-08-17T03:00:00Z,26.8015,-97.4706,1014.5,11111222 
TCOON,ioos:station:TCOON:003:1,2008-08-17T04:00:00Z,26.8015,-97.4706,1014.6,11111222 
TCOON,ioos:station:TCOON:003:1,2008-08-17T05:00:00Z,26.8015,-97.4706,1014.6,11111222 
TCOON,ioos:station:TCOON:003:1,2008-08-17T06:00:00Z,26.8015,-97.4706,1014.4,11111222 
TCOON,ioos:station:TCOON:003:1,2008-08-17T07:00:00Z,26.8015,-97.4706,1014.3,11111222 
TCOON,ioos:station:TCOON:003:1,2008-08-17T08:00:00Z,26.8015,-97.4706,1013.4,11111222 
TCOON,ioos:station:TCOON:003:1,2008-08-17T09:00:00Z,26.8015,-97.4706,1013.1,11111222 
TCOON,ioos:station:TCOON:003:1,2008-08-17T10:00:00Z,26.8015,-97.4706,1013.1,11111222 
TCOON,ioos:station:TCOON:003:1,2008-08-17T11:00:00Z,26.8015,-97.4706,1013.4,11111222 
TCOON,ioos:station:TCOON:003:1,2008-08-17T12:00:00Z,26.8015,-97.4706,1013.9,11111222 
TCOON,ioos:station:TCOON:003:1,2008-08-17T13:00:00Z,26.8015,-97.4706,1014.7,11111222 
TCOON,ioos:station:TCOON:003:1,2008-08-17T14:00:00Z,26.8015,-97.4706,1015.3,11111222 
TCOON,ioos:station:TCOON:003:1,2008-08-17T15:00:00Z,26.8015,-97.4706,1015.1,11111222 
TCOON,ioos:station:TCOON:003:1,2008-08-17T16:00:00Z,26.8015,-97.4706,1015.1,11111222 
TCOON,ioos:station:TCOON:003:1,2008-08-17T17:00:00Z,26.8015,-97.4706,1014.8,11111222 
TCOON,ioos:station:TCOON:003:1,2008-08-17T18:00:00Z,26.8015,-97.4706,1014.3,11111222 
TCOON,ioos:station:TCOON:003:1,2008-08-17T19:00:00Z,26.8015,-97.4706,1013.6,11111222 
TCOON,ioos:station:TCOON:003:1,2008-08-17T20:00:00Z,26.8015,-97.4706,1012.6,11111222 
TCOON,ioos:station:TCOON:003:1,2008-08-17T21:00:00Z,26.8015,-97.4706,1012.0,11111222 
TCOON,ioos:station:TCOON:003:1,2008-08-17T22:00:00Z,26.8015,-97.4706,1011.7,11111222 
TCOON,ioos:station:TCOON:003:1,2008-08-17T23:00:00Z,26.8015,-97.4706,1011.3,11111222 
TCOON,ioos:station:TCOON:003:1,2008-08-18T00:00:00Z,26.8015,-97.4706,1011.3,11111222 
TCOON,ioos:station:TCOON:003:1,2008-08-18T01:00:00Z,26.8015,-97.4706,1012.2,11111222 
TCOON,ioos:station:TCOON:003:1,2008-08-18T02:00:00Z,26.8015,-97.4706,1012.7,11111222 
TCOON,ioos:station:TCOON:003:1,2008-08-18T03:00:00Z,26.8015,-97.4706,1013.2,11111222 
TCOON,ioos:station:TCOON:003:1,2008-08-18T04:00:00Z,26.8015,-97.4706,1013.4,11111222 
TCOON,ioos:station:TCOON:003:1,2008-08-18T05:00:00Z,26.8015,-97.4706,1013.2,11111222 
TCOON,ioos:station:TCOON:003:1,2008-08-18T06:00:00Z,26.8015,-97.4706,1012.8,11111222 
TCOON,ioos:station:TCOON:003:1,2008-08-18T07:00:00Z,26.8015,-97.4706,1012.3,11111222 
TCOON,ioos:station:TCOON:003:1,2008-08-18T08:00:00Z,26.8015,-97.4706,1012.1,11111222 
TCOON,ioos:station:TCOON:003:1,2008-08-18T09:00:00Z,26.8015,-97.4706,1011.6,11111222 
TCOON,ioos:station:TCOON:003:1,2008-08-18T10:00:00Z,26.8015,-97.4706,1011.7,11111222 
TCOON,ioos:station:TCOON:003:1,2008-08-18T11:00:00Z,26.8015,-97.4706,1011.9,11111222 
TCOON,ioos:station:TCOON:003:1,2008-08-18T12:00:00Z,26.8015,-97.4706,1012.3,11111222 
TCOON,ioos:station:TCOON:003:1,2008-08-18T13:00:00Z,26.8015,-97.4706,1012.5,11111222 
TCOON,ioos:station:TCOON:003:1,2008-08-18T14:00:00Z,26.8015,-97.4706,1012.6,11111222 
TCOON,ioos:station:TCOON:003:1,2008-08-18T15:00:00Z,26.8015,-97.4706,1012.9,11111222 
TCOON,ioos:station:TCOON:003:1,2008-08-18T16:00:00Z,26.8015,-97.4706,1012.7,11111222 
TCOON,ioos:station:TCOON:003:1,2008-08-18T17:00:00Z,26.8015,-97.4706,1012.3,11111222 
TCOON,ioos:station:TCOON:003:1,2008-08-18T18:00:00Z,26.8015,-97.4706,1012.6,11111222 
TCOON,ioos:station:TCOON:003:1,2008-08-18T19:00:00Z,26.8015,-97.4706,1012.0,11111222 
TCOON,ioos:station:TCOON:003:1,2008-08-18T20:00:00Z,26.8015,-97.4706,1011.3,11111222 
TCOON,ioos:station:TCOON:003:1,2008-08-18T21:00:00Z,26.8015,-97.4706,1010.2,11111222 
TCOON,ioos:station:TCOON:003:1,2008-08-18T22:00:00Z,26.8015,-97.4706,1010.0,11111222 
TCOON,ioos:station:TCOON:003:1,2008-08-18T23:00:00Z,26.8015,-97.4706,1010.2,11111222 
TCOON,ioos:station:TCOON:003:1,2008-08-19T00:00:00Z,26.8015,-97.4706,1010.1,11111222 
TCOON,ioos:station:TCOON:003:1,2008-08-19T01:00:00Z,26.8015,-97.4706,1010.7,11111222 
TCOON,ioos:station:TCOON:003:1,2008-08-19T02:00:00Z,26.8015,-97.4706,1011.6,11111222 
TCOON,ioos:station:TCOON:003:1,2008-08-19T03:00:00Z,26.8015,-97.4706,1012.2,11111222 
TCOON,ioos:station:TCOON:003:1,2008-08-19T04:00:00Z,26.8015,-97.4706,1012.0,11111222 
TCOON,ioos:station:TCOON:003:1,2008-08-19T05:00:00Z,26.8015,-97.4706,1011.3,11111222 
TCOON,ioos:station:TCOON:003:1,2008-08-19T06:00:00Z,26.8015,-97.4706,1011.0,11111222 
TCOON,ioos:station:TCOON:003:1,2008-08-19T07:00:00Z,26.8015,-97.4706,1010.8,11111222 
TCOON,ioos:station:TCOON:003:1,2008-08-19T08:00:00Z,26.8015,-97.4706,1010.7,11111222 
TCOON,ioos:station:TCOON:003:1,2008-08-19T09:00:00Z,26.8015,-97.4706,1010.6,11111222 
TCOON,ioos:station:TCOON:003:1,2008-08-19T10:00:00Z,26.8015,-97.4706,1010.4,11111222 
TCOON,ioos:station:TCOON:003:1,2008-08-19T11:00:00Z,26.8015,-97.4706,1010.8,11111222 
TCOON,ioos:station:TCOON:003:1,2008-08-19T12:00:00Z,26.8015,-97.4706,1011.0,11111222 
TCOON,ioos:station:TCOON:003:1,2008-08-19T13:00:00Z,26.8015,-97.4706,1011.3,11111222 
TCOON,ioos:station:TCOON:003:1,2008-08-19T14:00:00Z,26.8015,-97.4706,1011.8,11111222 
TCOON,ioos:station:TCOON:003:1,2008-08-19T15:00:00Z,26.8015,-97.4706,1012.4,11111222 
TCOON,ioos:station:TCOON:003:1,2008-08-19T16:00:00Z,26.8015,-97.4706,1012.7,11111222 
TCOON,ioos:station:TCOON:003:1,2008-08-19T17:00:00Z,26.8015,-97.4706,1012.4,11111222 
TCOON,ioos:station:TCOON:003:1,2008-08-19T18:00:00Z,26.8015,-97.4706,1012.1,11111222 
TCOON,ioos:station:TCOON:003:1,2008-08-19T19:00:00Z,26.8015,-97.4706,1011.9,11111222 
TCOON,ioos:station:TCOON:003:1,2008-08-19T20:00:00Z,26.8015,-97.4706,1011.4,11111222 
TCOON,ioos:station:TCOON:003:1,2008-08-19T21:00:00Z,26.8015,-97.4706,1010.3,11111222 
TCOON,ioos:station:TCOON:003:1,2008-08-19T22:00:00Z,26.8015,-97.4706,1010.1,11111222 
TCOON,ioos:station:TCOON:003:1,2008-08-19T23:00:00Z,26.8015,-97.4706,1010.6,11111222 
TCOON,ioos:station:TCOON:003:1,2008-08-20T00:00:00Z,26.8015,-97.4706,1010.1,11111222 
TCOON,ioos:station:TCOON:003:1,2008-08-20T01:00:00Z,26.8015,-97.4706,1010.5,11111222 
TCOON,ioos:station:TCOON:003:1,2008-08-20T02:00:00Z,26.8015,-97.4706,1011.0,11111222 
TCOON,ioos:station:TCOON:003:1,2008-08-20T03:00:00Z,26.8015,-97.4706,1011.5,11111222 
TCOON,ioos:station:TCOON:003:1,2008-08-20T04:00:00Z,26.8015,-97.4706,1011.5,11111222 
TCOON,ioos:station:TCOON:003:1,2008-08-20T05:00:00Z,26.8015,-97.4706,1011.2,11111222 
TCOON,ioos:station:TCOON:003:1,2008-08-20T06:00:00Z,26.8015,-97.4706,1010.9,11111222 
TCOON,ioos:station:TCOON:003:1,2008-08-20T07:00:00Z,26.8015,-97.4706,1010.9,11111222 
TCOON,ioos:station:TCOON:003:1,2008-08-20T08:00:00Z,26.8015,-97.4706,1010.6,11111222 
TCOON,ioos:station:TCOON:003:1,2008-08-20T09:00:00Z,26.8015,-97.4706,1011.1,11111222 
TCOON,ioos:station:TCOON:003:1,2008-08-20T10:00:00Z,26.8015,-97.4706,1011.3,11111222 
TCOON,ioos:station:TCOON:003:1,2008-08-20T11:00:00Z,26.8015,-97.4706,1011.6,11111222 
TCOON,ioos:station:TCOON:003:1,2008-08-20T12:00:00Z,26.8015,-97.4706,1011.9,11111222 
TCOON,ioos:station:TCOON:003:1,2008-08-20T13:00:00Z,26.8015,-97.4706,1012.3,11111222 
TCOON,ioos:station:TCOON:003:1,2008-08-20T14:00:00Z,26.8015,-97.4706,1012.7,11111222 
TCOON,ioos:station:TCOON:003:1,2008-08-20T15:00:00Z,26.8015,-97.4706,1012.8,11111222 
TCOON,ioos:station:TCOON:003:1,2008-08-20T16:00:00Z,26.8015,-97.4706,1012.7,11111222 
TCOON,ioos:station:TCOON:003:1,2008-08-20T17:00:00Z,26.8015,-97.4706,1012.2,11111222 
TCOON,ioos:station:TCOON:003:1,2008-08-20T18:00:00Z,26.8015,-97.4706,1011.6,11111222 
TCOON,ioos:station:TCOON:003:1,2008-08-20T19:00:00Z,26.8015,-97.4706,1010.8,11111222 
TCOON,ioos:station:TCOON:003:1,2008-08-20T20:00:00Z,26.8015,-97.4706,1010.2,11111222 
TCOON,ioos:station:TCOON:003:1,2008-08-20T21:00:00Z,26.8015,-97.4706,1010.1,11111222 
TCOON,ioos:station:TCOON:003:1,2008-08-20T22:00:00Z,26.8015,-97.4706,1010.0,11111222 
TCOON,ioos:station:TCOON:003:1,2008-08-20T23:00:00Z,26.8015,-97.4706,1010.2,11111222 
TCOON,ioos:station:TCOON:003:1,2008-08-21T00:00:00Z,26.8015,-97.4706,1010.5,11111222 
TCOON,ioos:station:TCOON:003:1,2008-08-21T01:00:00Z,26.8015,-97.4706,1010.6,11111222 
TCOON,ioos:station:TCOON:003:1,2008-08-21T02:00:00Z,26.8015,-97.4706,1011.0,11111222 
TCOON,ioos:station:TCOON:003:1,2008-08-21T03:00:00Z,26.8015,-97.4706,1011.3,11111222 
TCOON,ioos:station:TCOON:003:1,2008-08-21T04:00:00Z,26.8015,-97.4706,1011.8,11111222 
TCOON,ioos:station:TCOON:003:1,2008-08-21T05:00:00Z,26.8015,-97.4706,1012.0,11111222 
TCOON,ioos:station:TCOON:003:1,2008-08-21T06:00:00Z,26.8015,-97.4706,1012.0,11111222 
TCOON,ioos:station:TCOON:003:1,2008-08-21T07:00:00Z,26.8015,-97.4706,1011.8,11111222 
TCOON,ioos:station:TCOON:003:1,2008-08-21T08:00:00Z,26.8015,-97.4706,1011.9,11111222 
TCOON,ioos:station:TCOON:003:1,2008-08-21T09:00:00Z,26.8015,-97.4706,1011.6,11111222 
TCOON,ioos:station:TCOON:003:1,2008-08-21T10:00:00Z,26.8015,-97.4706,1011.6,11111222 
TCOON,ioos:station:TCOON:003:1,2008-08-21T11:00:00Z,26.8015,-97.4706,1012.1,11111222 
TCOON,ioos:station:TCOON:003:1,2008-08-21T12:00:00Z,26.8015,-97.4706,1012.6,11111222 
TCOON,ioos:station:TCOON:003:1,2008-08-21T13:00:00Z,26.8015,-97.4706,1013.0,11111222 
TCOON,ioos:station:TCOON:003:1,2008-08-21T14:00:00Z,26.8015,-97.4706,1013.5,11111222 
TCOON,ioos:station:TCOON:003:1,2008-08-21T15:00:00Z,26.8015,-97.4706,1013.9,11111222 
TCOON,ioos:station:TCOON:003:1,2008-08-21T16:00:00Z,26.8015,-97.4706,1014.2,11111222 
TCOON,ioos:station:TCOON:003:1,2008-08-21T17:00:00Z,26.8015,-97.4706,1013.6,11111222 
TCOON,ioos:station:TCOON:003:1,2008-08-21T18:00:00Z,26.8015,-97.4706,1013.6,11111222 
TCOON,ioos:station:TCOON:003:1,2008-08-21T19:00:00Z,26.8015,-97.4706,1012.9,11111222 
TCOON,ioos:station:TCOON:003:1,2008-08-21T20:00:00Z,26.8015,-97.4706,1012.2,11111222 
TCOON,ioos:station:TCOON:003:1,2008-08-21T21:00:00Z,26.8015,-97.4706,1011.5,11111222 
TCOON,ioos:station:TCOON:003:1,2008-08-21T22:00:00Z,26.8015,-97.4706,1011.2,11111222 
TCOON,ioos:station:TCOON:003:1,2008-08-21T23:00:00Z,26.8015,-97.4706,1011.1,11111222 
TCOON,ioos:station:TCOON:003:1,2008-08-22T00:00:00Z,26.8015,-97.4706,1011.9,11111222 
TCOON,ioos:station:TCOON:003:1,2008-08-22T01:00:00Z,26.8015,-97.4706,1012.3,11111222 
TCOON,ioos:station:TCOON:003:1,2008-08-22T02:00:00Z,26.8015,-97.4706,1013.3,11111222 
TCOON,ioos:station:TCOON:003:1,2008-08-22T03:00:00Z,26.8015,-97.4706,1013.7,11111222 
TCOON,ioos:station:TCOON:003:1,2008-08-22T04:00:00Z,26.8015,-97.4706,1013.9,11111222 
TCOON,ioos:station:TCOON:003:1,2008-08-22T05:00:00Z,26.8015,-97.4706,1013.7,11111222 
TCOON,ioos:station:TCOON:003:1,2008-08-22T06:00:00Z,26.8015,-97.4706,1013.3,11111222 
TCOON,ioos:station:TCOON:003:1,2008-08-22T07:00:00Z,26.8015,-97.4706,1013.5,11111222 
TCOON,ioos:station:TCOON:003:1,2008-08-22T08:00:00Z,26.8015,-97.4706,1013.3,11111222 
TCOON,ioos:station:TCOON:003:1,2008-08-22T09:00:00Z,26.8015,-97.4706,1013.2,11111222 
TCOON,ioos:station:TCOON:003:1,2008-08-22T10:00:00Z,26.8015,-97.4706,1013.2,11111222 
TCOON,ioos:station:TCOON:003:1,2008-08-22T11:00:00Z,26.8015,-97.4706,1013.6,11111222 
TCOON,ioos:station:TCOON:003:1,2008-08-22T12:00:00Z,26.8015,-97.4706,1014.4,11111222 
TCOON,ioos:station:TCOON:003:1,2008-08-22T13:00:00Z,26.8015,-97.4706,1015.1,11111222 
TCOON,ioos:station:TCOON:003:1,2008-08-22T14:00:00Z,26.8015,-97.4706,1015.3,11111222 
TCOON,ioos:station:TCOON:003:1,2008-08-22T15:00:00Z,26.8015,-97.4706,1015.4,11111222 
TCOON,ioos:station:TCOON:003:1,2008-08-22T16:00:00Z,26.8015,-97.4706,1015.1,11111222 
TCOON,ioos:station:TCOON:003:1,2008-08-22T17:00:00Z,26.8015,-97.4706,1014.9,11111222 
TCOON,ioos:station:TCOON:003:1,2008-08-22T18:00:00Z,26.8015,-97.4706,1014.9,11111222 
TCOON,ioos:station:TCOON:003:1,2008-08-22T19:00:00Z,26.8015,-97.4706,1014.3,11111222 
TCOON,ioos:station:TCOON:003:1,2008-08-22T20:00:00Z,26.8015,-97.4706,1013.7,11111222 
TCOON,ioos:station:TCOON:003:1,2008-08-22T21:00:00Z,26.8015,-97.4706,1013.2,11111222 
TCOON,ioos:station:TCOON:003:1,2008-08-22T22:00:00Z,26.8015,-97.4706,1013.0,11111222 
TCOON,ioos:station:TCOON:003:1,2008-08-22T23:00:00Z,26.8015,-97.4706,1013.1,11111222 
TCOON,ioos:station:TCOON:003:1,2008-08-23T00:00:00Z,26.8015,-97.4706,1013.8,11111222 
TCOON,ioos:station:TCOON:003:1,2008-08-23T01:00:00Z,26.8015,-97.4706,1014.4,11111222 
TCOON,ioos:station:TCOON:003:1,2008-08-23T02:00:00Z,26.8015,-97.4706,1014.6,11111222 
TCOON,ioos:station:TCOON:003:1,2008-08-23T03:00:00Z,26.8015,-97.4706,1014.9,11111222 
TCOON,ioos:station:TCOON:003:1,2008-08-23T04:00:00Z,26.8015,-97.4706,1015.3,11111222 
TCOON,ioos:station:TCOON:003:1,2008-08-23T05:00:00Z,26.8015,-97.4706,1015.5,11111222 
TCOON,ioos:station:TCOON:003:1,2008-08-23T06:00:00Z,26.8015,-97.4706,1015.5,11111222 
TCOON,ioos:station:TCOON:003:1,2008-08-23T07:00:00Z,26.8015,-97.4706,1015.1,11111222 
TCOON,ioos:station:TCOON:003:1,2008-08-23T08:00:00Z,26.8015,-97.4706,1014.5,11111222 
TCOON,ioos:station:TCOON:003:1,2008-08-23T09:00:00Z,26.8015,-97.4706,1014.9,11111222 
TCOON,ioos:station:TCOON:003:1,2008-08-23T10:00:00Z,26.8015,-97.4706,1015.4,11111222 
TCOON,ioos:station:TCOON:003:1,2008-08-23T11:00:00Z,26.8015,-97.4706,1015.8,11111222 
TCOON,ioos:station:TCOON:003:1,2008-08-23T12:00:00Z,26.8015,-97.4706,1015.8,11111222 
TCOON,ioos:station:TCOON:003:1,2008-08-23T13:00:00Z,26.8015,-97.4706,1016.0,11111222 
TCOON,ioos:station:TCOON:003:1,2008-08-23T14:00:00Z,26.8015,-97.4706,1016.1,11111222 
TCOON,ioos:station:TCOON:003:1,2008-08-23T15:00:00Z,26.8015,-97.4706,1016.4,11111222 
TCOON,ioos:station:TCOON:003:1,2008-08-23T16:00:00Z,26.8015,-97.4706,1016.8,11111222 
TCOON,ioos:station:TCOON:003:1,2008-08-23T17:00:00Z,26.8015,-97.4706,1016.4,11111222 
TCOON,ioos:station:TCOON:003:1,2008-08-23T18:00:00Z,26.8015,-97.4706,1015.7,11111222 
TCOON,ioos:station:TCOON:003:1,2008-08-23T19:00:00Z,26.8015,-97.4706,1015.2,11111222 
TCOON,ioos:station:TCOON:003:1,2008-08-23T20:00:00Z,26.8015,-97.4706,1014.5,11111222 
TCOON,ioos:station:TCOON:003:1,2008-08-23T21:00:00Z,26.8015,-97.4706,1014.5,11111222 
TCOON,ioos:station:TCOON:003:1,2008-08-23T22:00:00Z,26.8015,-97.4706,1014.6,11111222 
TCOON,ioos:station:TCOON:003:1,2008-08-23T23:00:00Z,26.8015,-97.4706,1013.8,11111222 
TCOON,ioos:station:TCOON:003:1,2008-08-24T00:00:00Z,26.8015,-97.4706,1013.8,11111222 
TCOON,ioos:station:TCOON:003:1,2008-08-24T01:00:00Z,26.8015,-97.4706,1014.3,11111222 
TCOON,ioos:station:TCOON:003:1,2008-08-24T02:00:00Z,26.8015,-97.4706,1014.7,11111222 
TCOON,ioos:station:TCOON:003:1,2008-08-24T03:00:00Z,26.8015,-97.4706,1015.3,11111222 
TCOON,ioos:station:TCOON:003:1,2008-08-24T04:00:00Z,26.8015,-97.4706,1015.2,11111222 
TCOON,ioos:station:TCOON:003:1,2008-08-24T05:00:00Z,26.8015,-97.4706,1015.0,11111222 
TCOON,ioos:station:TCOON:003:1,2008-08-24T06:00:00Z,26.8015,-97.4706,1014.6,11111222 